Zurück zum Katalog

NOAA 16 DEB

AktivSSO
NORAD 41537·DEBRIS·🇺🇸 United States

Gestartet Sep 21, 2000 von Vandenberg Space Force Base

Loading…

Nächste Überflüge (nächste 24 Stunden)

TLE

AktuellSource: Space-Track

Epoche: Sep 14, 2026, 03:20 UTC

1 41537U 00055NM  26257.13954812  .00001320  00000-0  59239-3 0  9992
2 41537  98.5796 318.7135 0003759  54.8865 305.2666 14.24111722550287

Verfolge NOAA 16 DEB in Echtzeit mit AllMySat

Download on the App Store